Weather History for KBTV - November, 2012

Change the Weather History Date:

Friday, November 30, 2012

  Actual Average Record
Temperature  
Mean Temperature 16 °F 33 °F  
Max Temperature 23 °F 39 °F 63 °F (2006)
Min Temperature 8 °F 26 °F -2 °F (1958)
Degree Days  
Heating Degree Days 49 32  
Month to date heating degree days 839 803  
Since 1 July heating degree days 1352 1545  
Cooling Degree Days 0 0  
Month to date cooling degree days 0 0  
Year to date cooling degree days 747 491  
Moisture  
Dew Point 5 °F    
Average Humidity 63    
Maximum Humidity 76    
Minimum Humidity 49    
Precipitation  
Precipitation T in 0.09 in 1.19 in (1927)
Month to date precipitation 1.24 3.13  
Year to date precipitation 32.64 34.44  
Snow  
Snow T in 0.30 in 5.40 in (1971)
Month to date snowfall 3.8 5.1  
Since 1 July snowfall 3.8 5.4  
Since 1 September snowfall 3.8 5.4  
Snow Depth 2.00 in    
Sea Level Pressure  
Sea Level Pressure 30.53 in    
Wind  
Wind Speed 5 mph (NNE)    
Max Wind Speed 16 mph    
Max Gust Speed 20 mph    
Visibility 10 miles    
Events Snow    
T = Trace of Precipitation, MM = Missing Value Source: NWS Daily Summary

Daily Weather History Graph

Daily Weather History Graph

Search for Another Location

Airport or City:

Trip Planner

Search our weather history database for the weather conditions in past years. The results will help you decide how hot, cold, wet, or windy it might be!

Date:

Astronomy

Nov. 30, 2012 Rise Set
Actual Time 7:08 AM EST 4:14 PM EST
Civil Twilight 6:35 AM EST 4:47 PM EST
Nautical Twilight 5:59 AM EST 5:23 PM EST
Astronomical Twilight 5:24 AM EST 5:58 PM EST
Moon 6:07 PM EST (11/30) 8:38 AM EST (11/30)
Length of Visible Light 10h 11m
Length of Day
9h 06m
Waning Gibbous, 96% of the Moon is Illuminated
Nov 30
Waning Gibbous
Dec 6
Last Quarter
Dec 13
New
Dec 20
First Quarter
Dec 28
Full

Hourly Weather History & Observations

Time (EST) Temp. Windchill Dew Point Humidity Pressure Visibility Wind Dir Wind Speed Gust Speed Precip Events Conditions
12:01 AM 23.0 °F 12.4 °F 12.2 °F 63% 30.34 in 10.0 mi NNW 10.4 mph - N/A   Overcast
12:32 AM 21.2 °F 7.8 °F 12.2 °F 68% 30.34 in 10.0 mi NNW 15.0 mph - N/A   Overcast
12:54 AM 19.9 °F 6.7 °F 10.0 °F 65% 30.38 in 10.0 mi NNE 13.8 mph - N/A   Overcast
1:07 AM 19.4 °F 8.6 °F 10.4 °F 68% 30.37 in 10.0 mi NNE 9.2 mph - 0.00 in Snow Light Snow
1:54 AM 19.0 °F 7.5 °F 9.0 °F 65% 30.42 in 9.0 mi North 10.4 mph - 0.00 in Snow Light Snow
2:54 AM 14.0 °F -0.2 °F 5.0 °F 67% 30.44 in 9.0 mi North 12.7 mph - 0.00 in Snow Light Snow
3:34 AM 12.2 °F 1.7 °F 3.2 °F 67% 30.43 in 9.0 mi North 6.9 mph - 0.00 in   Scattered Clouds
3:54 AM 10.9 °F 2.9 °F 3.0 °F 70% 30.47 in 10.0 mi NNE 4.6 mph - 0.00 in   Clear
4:54 AM 10.9 °F 2.9 °F 3.0 °F 70% 30.49 in 10.0 mi ENE 4.6 mph - N/A   Clear
5:54 AM 9.0 °F 2.4 °F 1.9 °F 73% 30.52 in 10.0 mi ENE 3.5 mph - N/A   Clear
6:54 AM 9.0 °F 0.6 °F 1.9 °F 73% 30.54 in 10.0 mi ENE 4.6 mph - N/A   Scattered Clouds
7:16 AM 8.6 °F -1.3 °F 1.4 °F 73% 30.52 in 10.0 mi ENE 5.8 mph - N/A   Mostly Cloudy
7:54 AM 9.0 °F -0.9 °F 1.9 °F 73% 30.56 in 10.0 mi ENE 5.8 mph - N/A   Partly Cloudy
8:54 AM 10.9 °F 4.7 °F 3.9 °F 73% 30.58 in 10.0 mi East 3.5 mph - N/A   Scattered Clouds
9:54 AM 14.0 °F 5.1 °F 3.9 °F 64% 30.59 in 10.0 mi ENE 5.8 mph - N/A   Scattered Clouds
10:54 AM 16.0 °F 10.4 °F 3.0 °F 57% 30.58 in 10.0 mi NNE 3.5 mph - N/A   Partly Cloudy
11:54 AM 17.1 °F 10.0 °F 5.0 °F 59% 30.58 in 10.0 mi NW 4.6 mph - N/A   Scattered Clouds
12:54 PM 19.0 °F 12.3 °F 3.9 °F 52% 30.57 in 10.0 mi North 4.6 mph - N/A   Partly Cloudy
1:54 PM 19.0 °F 11.1 °F 5.0 °F 54% 30.56 in 10.0 mi NW 5.8 mph - N/A   Partly Cloudy
2:54 PM 18.0 °F 9.8 °F 3.9 °F 54% 30.56 in 10.0 mi NNW 5.8 mph - N/A   Partly Cloudy
3:54 PM 17.1 °F 10.0 °F 3.0 °F 54% 30.56 in 10.0 mi North 4.6 mph - N/A   Scattered Clouds
4:54 PM 16.0 °F 8.8 °F 5.0 °F 62% 30.57 in 10.0 mi North 4.6 mph - N/A   Scattered Clouds
5:54 PM 15.1 °F 7.7 °F 3.9 °F 61% 30.59 in 10.0 mi North 4.6 mph - N/A   Clear
6:54 PM 12.9 °F 6.9 °F 5.0 °F 71% 30.60 in 10.0 mi NNE 3.5 mph - N/A   Partly Cloudy
7:54 PM 12.9 °F - 5.0 °F 71% 30.61 in 10.0 mi Calm Calm - N/A   Partly Cloudy
8:54 PM 12.9 °F - 5.0 °F 71% 30.60 in 10.0 mi Calm Calm - N/A   Clear
9:54 PM 12.0 °F - 7.0 °F 80% 30.60 in 10.0 mi Calm Calm - N/A   Overcast
10:54 PM 14.0 °F - 7.0 °F 74% 30.61 in 10.0 mi Calm Calm - N/A   Overcast
11:54 PM 14.0 °F - 8.1 °F 77% 30.60 in 10.0 mi Calm Calm - N/A   Overcast